Location: College Park
(38.9810°N, 76.9370°W)
Time: 09:48:26
(UTC-05:00)

ISS - Pass Details

Date: 16 November 2017
Orbit: 402 x 407 km, 51.6° (Epoch: 24 November)

Event Time Altitude Azimuth Distance (km) Brightness Sun altitude
Exits shadow 05:48:50 21° 304° (WNW) 977 -2.5 -12.4°
Maximum altitude 05:50:54 76° 220° (SW) 416 -3.9 -12.0°
Drops below altitude 10° 05:54:08 10° 135° (SE) 1,446 0.0 -11.4°
Sets 05:56:12 0° 133° (SE) 2,301 1.2 -11.0°
